Time,TemperatureF,DewpointF,PressureIn,WindDirection,WindDirectionDegrees,WindSpeedMPH,WindSpeedGustMPH,Humidity,HourlyPrecipIn,Conditions,Clouds,dailyrainin,SoftwareType,DateUTC
2013-06-13 00:00:00,64.5,58.9,29.97,NW,317,0.0,0.0,82,0.00,,,0.00,Wunderground v.1.15,2013-06-13 07:00:00,
2013-06-13 00:02:00,64.5,58.9,29.97,NW,317,0.0,0.0,82,0.00,,,0.00,Wunderground v.1.15,2013-06-13 07:02:00,
2013-06-13 00:04:00,64.5,58.9,29.97,NW,317,0.0,0.0,82,0.00,,,0.00,Wunderground v.1.15,2013-06-13 07:04:00,
2013-06-13 00:05:00,64.5,58.9,29.97,NW,315,0.0,-999.0,82,0.00,,,0.00,Wunderground v.1.15,2013-06-13 07:05:00,
2013-06-13 00:08:00,64.5,58.9,29.97,NW,317,0.0,0.0,82,0.00,,,0.00,Wunderground v.1.15,2013-06-13 07:08:00,
2013-06-13 00:10:00,64.5,58.9,29.97,NW,317,0.0,0.0,82,0.00,,,0.00,Wunderground v.1.15,2013-06-13 07:10:00,
2013-06-13 00:12:00,64.5,58.9,29.97,NW,317,0.0,0.0,82,0.00,,,0.00,Wunderground v.1.15,2013-06-13 07:12:00,
2013-06-13 00:15:00,64.4,58.8,29.97,NW,315,0.0,-999.0,82,0.00,,,0.00,Wunderground v.1.15,2013-06-13 07:15:00,
2013-06-13 00:18:00,64.4,58.8,29.97,NW,317,0.0,0.0,82,0.00,,,0.00,Wunderground v.1.15,2013-06-13 07:18:00,
2013-06-13 00:20:00,64.4,58.8,29.97,NW,317,0.0,0.0,82,0.00,,,0.00,Wunderground v.1.15,2013-06-13 07:20:00,
2013-06-13 00:24:00,64.4,58.8,29.97,NW,317,0.0,0.0,82,0.00,,,0.00,Wunderground v.1.15,2013-06-13 07:24:00,
2013-06-13 00:25:00,64.3,58.7,29.97,NW,315,0.0,-999.0,82,0.00,,,0.00,Wunderground v.1.15,2013-06-13 07:25:00,
2013-06-13 00:28:00,64.3,58.7,29.97,NW,317,0.0,1.0,82,0.00,,,0.00,Wunderground v.1.15,2013-06-13 07:28:00,
2013-06-13 00:30:00,64.3,58.7,29.97,NW,317,0.0,0.0,82,0.00,,,0.00,Wunderground v.1.15,2013-06-13 07:30:00,
2013-06-13 00:32:00,64.3,58.7,29.97,NW,317,0.0,0.0,82,0.00,,,0.00,Wunderground v.1.15,2013-06-13 07:32:00,
2013-06-13 00:34:00,64.3,58.7,29.97,NW,317,0.0,0.0,82,0.00,,,0.00,Wunderground v.1.15,2013-06-13 07:34:00,
2013-06-13 00:35:00,64.2,58.6,29.96,NW,315,0.0,-999.0,82,0.00,,,0.00,Wunderground v.1.15,2013-06-13 07:35:00,
2013-06-13 00:36:00,64.2,58.6,29.97,NW,317,0.0,0.0,82,0.00,,,0.00,Wunderground v.1.15,2013-06-13 07:36:00,
2013-06-13 00:38:00,64.2,58.6,29.96,NW,317,0.0,0.0,82,0.00,,,0.00,Wunderground v.1.15,2013-06-13 07:38:00,
2013-06-13 00:40:00,64.2,58.6,29.96,NW,317,0.0,0.0,82,0.00,,,0.00,Wunderground v.1.15,2013-06-13 07:40:00,
2013-06-13 00:42:00,64.2,58.6,29.96,NW,317,0.0,0.0,82,0.00,,,0.00,Wunderground v.1.15,2013-06-13 07:42:00,
2013-06-13 00:45:00,64.2,58.9,29.97,N/A,-737280,0.0,-999.0,83,0.00,,,0.00,Wunderground v.1.15,2013-06-13 07:45:00,
2013-06-13 00:48:00,64.2,58.9,29.96,NW,317,0.0,0.0,83,0.00,,,0.00,Wunderground v.1.15,2013-06-13 07:48:00,
2013-06-13 00:50:00,64.1,58.8,29.97,NW,317,0.0,0.0,83,0.00,,,0.00,Wunderground v.1.15,2013-06-13 07:50:00,
2013-06-13 00:52:00,64.1,58.8,29.96,NW,317,0.0,0.0,83,0.00,,,0.00,Wunderground v.1.15,2013-06-13 07:52:00,
2013-06-13 00:55:00,64.1,58.8,29.97,N/A,-737280,0.0,-999.0,83,0.00,,,0.00,Wunderground v.1.15,2013-06-13 07:55:00,
2013-06-13 00:56:00,64.1,58.8,29.96,NW,317,0.0,0.0,83,0.00,,,0.00,Wunderground v.1.15,2013-06-13 07:56:00,
2013-06-13 00:58:00,64.1,58.8,29.96,NW,317,0.0,0.0,83,0.00,,,0.00,Wunderground v.1.15,2013-06-13 07:58:00,
2013-06-13 01:00:00,64.1,58.8,29.97,NW,317,0.0,0.0,83,0.00,,,0.00,Wunderground v.1.15,2013-06-13 08:00:00,
2013-06-13 01:02:00,64.1,58.8,29.97,NW,317,0.0,0.0,83,0.00,,,0.00,Wunderground v.1.15,2013-06-13 08:02:00,
2013-06-13 01:05:00,64.1,58.8,29.97,NW,315,0.0,-999.0,83,0.00,,,0.00,Wunderground v.1.15,2013-06-13 08:05:00,
2013-06-13 01:06:00,64.1,58.8,29.97,NW,317,0.0,0.0,83,0.00,,,0.00,Wunderground v.1.15,2013-06-13 08:06:00,
2013-06-13 01:10:00,64.1,58.8,29.97,NW,317,0.0,0.0,83,0.00,,,0.00,Wunderground v.1.15,2013-06-13 08:10:00,
2013-06-13 01:15:00,64.1,58.8,29.96,NW,315,0.0,-999.0,83,0.00,,,0.00,Wunderground v.1.15,2013-06-13 08:15:00,
2013-06-13 01:18:00,64.1,58.8,29.96,NW,317,0.0,0.0,83,0.00,,,0.00,Wunderground v.1.15,2013-06-13 08:18:00,
2013-06-13 01:20:00,64.1,58.8,29.96,NW,317,0.0,0.0,83,0.00,,,0.00,Wunderground v.1.15,2013-06-13 08:20:00,
2013-06-13 01:22:00,64.1,58.8,29.96,NW,317,0.0,0.0,83,0.00,,,0.00,Wunderground v.1.15,2013-06-13 08:22:00,
2013-06-13 01:25:00,64.2,58.9,29.96,NW,315,0.0,-999.0,83,0.00,,,0.00,Wunderground v.1.15,2013-06-13 08:25:00,
2013-06-13 01:26:00,64.2,58.9,29.96,NW,317,0.0,0.0,83,0.00,,,0.00,Wunderground v.1.15,2013-06-13 08:26:00,
2013-06-13 01:28:00,64.2,58.9,29.96,NW,317,0.0,0.0,83,0.00,,,0.00,Wunderground v.1.15,2013-06-13 08:28:00,
2013-06-13 01:30:00,64.2,58.9,29.96,NW,315,0.0,-999.0,83,0.00,,,0.00,Wunderground v.1.15,2013-06-13 08:30:00,
2013-06-13 01:34:00,64.3,59.0,29.96,NW,317,0.0,0.0,83,0.00,,,0.00,Wunderground v.1.15,2013-06-13 08:34:00,
2013-06-13 01:35:00,64.3,59.0,29.96,N/A,-737280,0.0,-999.0,83,0.00,,,0.00,Wunderground v.1.15,2013-06-13 08:35:00,
2013-06-13 01:36:00,64.3,59.0,29.96,NW,317,0.0,0.0,83,0.00,,,0.00,Wunderground v.1.15,2013-06-13 08:36:00,
2013-06-13 01:38:00,64.3,59.0,29.96,NW,317,0.0,0.0,83,0.00,,,0.00,Wunderground v.1.15,2013-06-13 08:38:00,
2013-06-13 01:40:00,64.3,59.0,29.96,NW,317,0.0,0.0,83,0.00,,,0.00,Wunderground v.1.15,2013-06-13 08:40:00,
2013-06-13 01:42:00,64.3,59.0,29.96,NW,317,0.0,0.0,83,0.00,,,0.00,Wunderground v.1.15,2013-06-13 08:42:00,
2013-06-13 01:45:00,64.2,58.9,29.97,NW,315,0.0,-999.0,83,0.00,,,0.00,Wunderground v.1.15,2013-06-13 08:45:00,
2013-06-13 01:46:00,64.2,58.9,29.96,NW,317,0.0,0.0,83,0.00,,,0.00,Wunderground v.1.15,2013-06-13 08:46:00,
2013-06-13 01:48:00,64.2,58.9,29.97,NW,317,0.0,0.0,83,0.00,,,0.00,Wunderground v.1.15,2013-06-13 08:48:00,
2013-06-13 01:50:00,64.2,58.9,29.97,NW,315,0.0,-999.0,83,0.00,,,0.00,Wunderground v.1.15,2013-06-13 08:50:00,
2013-06-13 01:52:00,64.2,58.9,29.97,NW,317,0.0,0.0,83,0.00,,,0.00,Wunderground v.1.15,2013-06-13 08:52:00,
2013-06-13 01:54:00,64.2,58.9,29.97,NW,317,0.0,0.0,83,0.00,,,0.00,Wunderground v.1.15,2013-06-13 08:54:00,
2013-06-13 01:55:00,64.3,59.0,29.97,N/A,-737280,0.0,-999.0,83,0.00,,,0.00,Wunderground v.1.15,2013-06-13 08:55:00,
2013-06-13 02:00:00,64.2,58.9,29.97,NW,317,0.0,0.0,83,0.00,,,0.00,Wunderground v.1.15,2013-06-13 09:00:00,
2013-06-13 02:02:00,64.3,59.0,29.97,NW,317,0.0,0.0,83,0.00,,,0.00,Wunderground v.1.15,2013-06-13 09:02:00,
2013-06-13 02:05:00,64.3,59.0,29.96,N/A,-737280,0.0,-999.0,83,0.00,,,0.00,Wunderground v.1.15,2013-06-13 09:05:00,
2013-06-13 02:10:00,64.3,59.0,29.96,N/A,-737280,0.0,-999.0,83,0.00,,,0.00,Wunderground v.1.15,2013-06-13 09:10:00,
2013-06-13 02:15:00,64.3,59.0,29.96,N/A,-737280,0.0,-999.0,83,0.00,,,0.00,Wunderground v.1.15,2013-06-13 09:15:00,
2013-06-13 02:20:00,64.3,59.0,29.96,N/A,-737280,0.0,-999.0,83,0.00,,,0.00,Wunderground v.1.15,2013-06-13 09:20:00,
2013-06-13 02:25:00,64.3,58.7,29.96,NW,315,0.0,-999.0,82,0.00,,,0.00,Wunderground v.1.15,2013-06-13 09:25:00,
2013-06-13 02:30:00,64.3,58.7,29.96,NW,315,0.0,-999.0,82,0.00,,,0.00,Wunderground v.1.15,2013-06-13 09:30:00,
2013-06-13 02:35:00,64.3,58.7,29.96,NW,315,0.0,-999.0,82,0.00,,,0.00,Wunderground v.1.15,2013-06-13 09:35:00,
2013-06-13 02:40:00,64.3,58.7,29.96,NW,315,0.0,-999.0,82,0.00,,,0.00,Wunderground v.1.15,2013-06-13 09:40:00,
2013-06-13 02:45:00,64.3,58.7,29.96,NW,315,0.0,-999.0,82,0.00,,,0.00,Wunderground v.1.15,2013-06-13 09:45:00,
2013-06-13 02:50:00,64.3,58.7,29.96,NW,315,0.0,-999.0,82,0.00,,,0.00,Wunderground v.1.15,2013-06-13 09:50:00,
2013-06-13 02:55:00,64.4,58.8,29.96,NW,315,0.0,-999.0,82,0.00,,,0.00,Wunderground v.1.15,2013-06-13 09:55:00,
2013-06-13 03:00:00,64.4,58.8,29.96,NW,315,0.0,-999.0,82,0.00,,,0.00,Wunderground v.1.15,2013-06-13 10:00:00,
2013-06-13 03:05:00,64.4,58.8,29.96,N/A,-737280,0.0,-999.0,82,0.00,,,0.00,Wunderground v.1.15,2013-06-13 10:05:00,
2013-06-13 03:10:00,64.4,58.8,29.96,N/A,-737280,0.0,-999.0,82,0.00,,,0.00,Wunderground v.1.15,2013-06-13 10:10:00,
2013-06-13 03:15:00,64.3,59.0,29.95,N/A,-737280,0.0,-999.0,83,0.00,,,0.00,Wunderground v.1.15,2013-06-13 10:15:00,
2013-06-13 03:20:00,64.3,59.0,29.95,N/A,-737280,0.0,-999.0,83,0.00,,,0.00,Wunderground v.1.15,2013-06-13 10:20:00,
2013-06-13 03:25:00,64.3,59.0,29.95,NW,315,0.0,-999.0,83,0.00,,,0.00,Wunderground v.1.15,2013-06-13 10:25:00,
2013-06-13 03:30:00,64.3,59.0,29.95,NW,315,0.0,-999.0,83,0.00,,,0.00,Wunderground v.1.15,2013-06-13 10:30:00,
2013-06-13 03:35:00,64.2,58.9,29.95,N/A,-737280,0.0,-999.0,83,0.00,,,0.00,Wunderground v.1.15,2013-06-13 10:35:00,
2013-06-13 03:40:00,64.2,58.9,29.95,N/A,-737280,0.0,-999.0,83,0.00,,,0.00,Wunderground v.1.15,2013-06-13 10:40:00,
2013-06-13 03:45:00,64.1,58.5,29.95,N/A,-737280,0.0,-999.0,82,0.00,,,0.00,Wunderground v.1.15,2013-06-13 10:45:00,
2013-06-13 03:50:00,64.1,58.5,29.95,N/A,-737280,0.0,-999.0,82,0.00,,,0.00,Wunderground v.1.15,2013-06-13 10:50:00,
2013-06-13 03:55:00,64.0,58.4,29.95,N/A,-737280,0.0,-999.0,82,0.00,,,0.00,Wunderground v.1.15,2013-06-13 10:55:00,
2013-06-13 04:00:00,64.0,58.4,29.95,N/A,-737280,0.0,-999.0,82,0.00,,,0.00,Wunderground v.1.15,2013-06-13 11:00:00,
2013-06-13 04:05:00,64.1,58.5,29.95,N/A,-737280,0.0,-999.0,82,0.00,,,0.00,Wunderground v.1.15,2013-06-13 11:05:00,
2013-06-13 04:10:00,64.1,58.5,29.95,N/A,-737280,0.0,-999.0,82,0.00,,,0.00,Wunderground v.1.15,2013-06-13 11:10:00,
2013-06-13 04:15:00,64.0,58.4,29.95,N/A,-737280,0.0,-999.0,82,0.00,,,0.00,Wunderground v.1.15,2013-06-13 11:15:00,
2013-06-13 04:20:00,64.0,58.4,29.95,N/A,-737280,0.0,-999.0,82,0.00,,,0.00,Wunderground v.1.15,2013-06-13 11:20:00,
2013-06-13 04:25:00,64.1,58.5,29.96,N/A,-737280,0.0,-999.0,82,0.00,,,0.00,Wunderground v.1.15,2013-06-13 11:25:00,
2013-06-13 04:30:00,64.1,58.5,29.96,N/A,-737280,0.0,-999.0,82,0.00,,,0.00,Wunderground v.1.15,2013-06-13 11:30:00,
2013-06-13 04:35:00,64.1,58.5,29.96,NW,315,0.0,-999.0,82,0.00,,,0.00,Wunderground v.1.15,2013-06-13 11:35:00,
2013-06-13 04:40:00,64.1,58.5,29.96,NW,315,0.0,-999.0,82,0.00,,,0.00,Wunderground v.1.15,2013-06-13 11:40:00,
2013-06-13 04:45:00,64.1,58.5,29.96,NW,315,0.0,-999.0,82,0.00,,,0.00,Wunderground v.1.15,2013-06-13 11:45:00,
2013-06-13 04:50:00,64.1,58.5,29.96,NW,315,0.0,-999.0,82,0.00,,,0.00,Wunderground v.1.15,2013-06-13 11:50:00,
2013-06-13 04:55:00,64.1,58.5,29.96,NW,315,0.0,-999.0,82,0.00,,,0.00,Wunderground v.1.15,2013-06-13 11:55:00,
2013-06-13 05:00:00,64.1,58.5,29.96,NW,315,0.0,-999.0,82,0.00,,,0.00,Wunderground v.1.15,2013-06-13 12:00:00,
2013-06-13 05:05:00,64.3,58.3,29.96,East,90,1.0,-999.0,81,0.00,,,0.00,Wunderground v.1.15,2013-06-13 12:05:00,
2013-06-13 05:10:00,64.3,58.3,29.96,East,90,1.0,-999.0,81,0.00,,,0.00,Wunderground v.1.15,2013-06-13 12:10:00,
2013-06-13 05:15:00,64.3,58.7,29.96,East,90,0.0,-999.0,82,0.00,,,0.00,Wunderground v.1.15,2013-06-13 12:15:00,
2013-06-13 05:20:00,64.3,58.7,29.96,East,90,0.0,-999.0,82,0.00,,,0.00,Wunderground v.1.15,2013-06-13 12:20:00,
2013-06-13 05:25:00,64.3,58.7,29.97,East,90,0.0,-999.0,82,0.00,,,0.00,Wunderground v.1.15,2013-06-13 12:25:00,
2013-06-13 05:30:00,64.3,58.7,29.97,East,90,0.0,-999.0,82,0.00,,,0.00,Wunderground v.1.15,2013-06-13 12:30:00,
2013-06-13 05:35:00,64.2,58.9,29.97,East,90,0.0,-999.0,83,0.00,,,0.00,Wunderground v.1.15,2013-06-13 12:35:00,
2013-06-13 05:40:00,64.2,58.9,29.97,East,90,0.0,-999.0,83,0.00,,,0.00,Wunderground v.1.15,2013-06-13 12:40:00,
2013-06-13 05:45:00,64.1,58.8,29.97,East,90,0.0,-999.0,83,0.00,,,0.00,Wunderground v.1.15,2013-06-13 12:45:00,
2013-06-13 05:50:00,64.1,58.8,29.97,East,90,0.0,-999.0,83,0.00,,,0.00,Wunderground v.1.15,2013-06-13 12:50:00,
2013-06-13 05:55:00,64.1,58.5,29.97,N/A,-737280,0.0,-999.0,82,0.00,,,0.00,Wunderground v.1.15,2013-06-13 12:55:00,
2013-06-13 06:00:00,64.1,58.5,29.97,N/A,-737280,0.0,-999.0,82,0.00,,,0.00,Wunderground v.1.15,2013-06-13 13:00:00,
2013-06-13 06:05:00,64.1,58.5,29.97,N/A,-737280,0.0,-999.0,82,0.00,,,0.00,Wunderground v.1.15,2013-06-13 13:05:00,
2013-06-13 06:10:00,64.1,58.5,29.97,N/A,-737280,0.0,-999.0,82,0.00,,,0.00,Wunderground v.1.15,2013-06-13 13:10:00,
2013-06-13 06:15:00,64.1,58.5,29.97,N/A,-737280,0.0,-999.0,82,0.00,,,0.00,Wunderground v.1.15,2013-06-13 13:15:00,
2013-06-13 06:20:00,64.1,58.5,29.97,N/A,-737280,0.0,-999.0,82,0.00,,,0.00,Wunderground v.1.15,2013-06-13 13:20:00,
2013-06-13 06:25:00,64.3,58.7,29.98,East,90,0.0,-999.0,82,0.00,,,0.00,Wunderground v.1.15,2013-06-13 13:25:00,
2013-06-13 06:30:00,64.3,58.7,29.98,East,90,0.0,-999.0,82,0.00,,,0.00,Wunderground v.1.15,2013-06-13 13:30:00,
2013-06-13 06:35:00,64.5,58.5,29.98,East,90,1.0,-999.0,81,0.00,,,0.00,Wunderground v.1.15,2013-06-13 13:35:00,
2013-06-13 06:40:00,64.5,58.5,29.98,East,90,1.0,-999.0,81,0.00,,,0.00,Wunderground v.1.15,2013-06-13 13:40:00,
2013-06-13 06:45:00,64.6,58.6,29.98,East,90,0.0,-999.0,81,0.00,,,0.00,Wunderground v.1.15,2013-06-13 13:45:00,
2013-06-13 06:50:00,64.6,58.6,29.98,East,90,0.0,-999.0,81,0.00,,,0.00,Wunderground v.1.15,2013-06-13 13:50:00,
2013-06-13 06:55:00,64.7,58.7,29.98,ESE,113,1.0,-999.0,81,0.00,,,0.00,Wunderground v.1.15,2013-06-13 13:55:00,
2013-06-13 07:00:00,64.7,58.7,29.98,ESE,113,1.0,-999.0,81,0.00,,,0.00,Wunderground v.1.15,2013-06-13 14:00:00,
2013-06-13 07:04:00,64.7,58.7,29.98,SSE,160,1.0,1.0,81,0.00,,,0.00,Wunderground v.1.15,2013-06-13 14:04:00,
2013-06-13 07:08:00,64.7,58.7,29.98,SSE,161,1.0,1.0,81,0.00,,,0.00,Wunderground v.1.15,2013-06-13 14:08:00,
2013-06-13 07:11:00,64.7,58.7,29.98,SSE,158,0.0,-999.0,81,0.00,,,0.00,Wunderground v.1.15,2013-06-13 14:11:00,
2013-06-13 07:20:00,64.9,58.9,29.98,SE,142,1.0,1.0,81,0.00,,,0.00,Wunderground v.1.15,2013-06-13 14:20:00,
2013-06-13 07:22:00,65.0,59.0,29.98,SE,141,1.0,1.0,81,0.00,,,0.00,Wunderground v.1.15,2013-06-13 14:22:00,
2013-06-13 07:24:00,65.0,59.0,29.98,SE,141,1.0,1.0,81,0.00,,,0.00,Wunderground v.1.15,2013-06-13 14:24:00,
2013-06-13 07:28:00,65.0,59.0,29.98,SE,141,0.0,1.0,81,0.00,,,0.00,Wunderground v.1.15,2013-06-13 14:28:00,
2013-06-13 07:30:00,65.0,58.7,29.98,SSW,192,0.0,0.0,80,0.00,,,0.00,Wunderground v.1.15,2013-06-13 14:30:00,
2013-06-13 07:32:00,65.0,58.7,29.98,SSW,192,0.0,0.0,80,0.00,,,0.00,Wunderground v.1.15,2013-06-13 14:32:00,
2013-06-13 07:34:00,65.1,59.1,29.98,SSW,192,0.0,0.0,81,0.00,,,0.00,Wunderground v.1.15,2013-06-13 14:34:00,
2013-06-13 07:36:00,65.1,59.1,29.98,SSW,192,0.0,0.0,81,0.00,,,0.00,Wunderground v.1.15,2013-06-13 14:36:00,
2013-06-13 07:38:00,65.1,58.8,29.98,SSW,192,0.0,0.0,80,0.00,,,0.00,Wunderground v.1.15,2013-06-13 14:38:00,
2013-06-13 07:40:00,65.2,59.2,29.98,SSW,192,0.0,0.0,81,0.00,,,0.00,Wunderground v.1.15,2013-06-13 14:40:00,
2013-06-13 07:42:00,65.2,59.2,29.99,SSW,192,0.0,0.0,81,0.00,,,0.00,Wunderground v.1.15,2013-06-13 14:42:00,
2013-06-13 07:44:00,65.2,58.9,29.99,SSW,192,0.0,0.0,80,0.00,,,0.00,Wunderground v.1.15,2013-06-13 14:44:00,
2013-06-13 07:46:00,65.3,59.0,29.99,SSW,192,0.0,0.0,80,0.00,,,0.00,Wunderground v.1.15,2013-06-13 14:46:00,
2013-06-13 07:52:00,65.5,59.2,29.99,SSW,192,0.0,0.0,80,0.00,,,0.00,Wunderground v.1.15,2013-06-13 14:52:00,
2013-06-13 07:56:00,65.6,58.9,29.99,SSW,192,0.0,1.0,79,0.00,,,0.00,Wunderground v.1.15,2013-06-13 14:56:00,
2013-06-13 07:58:00,65.6,58.9,29.99,SSW,192,0.0,1.0,79,0.00,,,0.00,Wunderground v.1.15,2013-06-13 14:58:00,
2013-06-13 08:00:00,65.6,59.3,29.99,SSW,192,0.0,0.0,80,0.00,,,0.00,Wunderground v.1.15,2013-06-13 15:00:00,
2013-06-13 08:04:00,65.6,58.9,29.99,SSW,192,0.0,0.0,79,0.00,,,0.00,Wunderground v.1.15,2013-06-13 15:04:00,
2013-06-13 08:06:00,65.5,58.8,29.99,SSW,192,0.0,0.0,79,0.00,,,0.00,Wunderground v.1.15,2013-06-13 15:06:00,
2013-06-13 08:08:00,65.6,59.3,29.99,SSW,192,0.0,0.0,80,0.00,,,0.00,Wunderground v.1.15,2013-06-13 15:08:00,
2013-06-13 08:10:00,65.6,59.3,29.99,SSW,192,0.0,0.0,80,0.00,,,0.00,Wunderground v.1.15,2013-06-13 15:10:00,
2013-06-13 08:12:00,65.7,59.0,29.99,SSW,192,0.0,1.0,79,0.00,,,0.00,Wunderground v.1.15,2013-06-13 15:12:00,
2013-06-13 08:14:00,65.8,59.5,29.99,SSW,192,0.0,1.0,80,0.00,,,0.00,Wunderground v.1.15,2013-06-13 15:14:00,
2013-06-13 08:18:00,65.9,59.2,29.99,SSW,192,0.0,1.0,79,0.00,,,0.00,Wunderground v.1.15,2013-06-13 15:18:00,
2013-06-13 08:20:00,66.0,59.3,29.99,SSW,192,0.0,0.0,79,0.00,,,0.00,Wunderground v.1.15,2013-06-13 15:20:00,
2013-06-13 08:26:00,66.0,59.3,29.99,SSW,192,0.0,1.0,79,0.00,,,0.00,Wunderground v.1.15,2013-06-13 15:26:00,
2013-06-13 08:30:00,66.0,59.3,29.99,SSW,192,0.0,0.0,79,0.00,,,0.00,Wunderground v.1.15,2013-06-13 15:30:00,
2013-06-13 08:34:00,66.1,59.4,29.99,SSW,192,0.0,0.0,79,0.00,,,0.00,Wunderground v.1.15,2013-06-13 15:34:00,
2013-06-13 08:38:00,66.3,59.6,30.00,SSW,192,0.0,0.0,79,0.00,,,0.00,Wunderground v.1.15,2013-06-13 15:38:00,
2013-06-13 08:40:00,66.5,59.8,29.99,SSW,192,0.0,0.0,79,0.00,,,0.00,Wunderground v.1.15,2013-06-13 15:40:00,
2013-06-13 08:42:00,66.6,59.5,29.99,SSW,192,0.0,0.0,78,0.00,,,0.00,Wunderground v.1.15,2013-06-13 15:42:00,
2013-06-13 08:44:00,66.7,59.6,30.00,SSW,192,0.0,0.0,78,0.00,,,0.00,Wunderground v.1.15,2013-06-13 15:44:00,
2013-06-13 08:46:00,66.8,59.7,30.00,SSW,192,0.0,0.0,78,0.00,,,0.00,Wunderground v.1.15,2013-06-13 15:46:00,
2013-06-13 08:48:00,66.9,59.8,30.00,SSW,192,0.0,0.0,78,0.00,,,0.00,Wunderground v.1.15,2013-06-13 15:48:00,
2013-06-13 08:50:00,67.0,59.9,30.00,SSW,192,0.0,0.0,78,0.00,,,0.00,Wunderground v.1.15,2013-06-13 15:50:00,
2013-06-13 08:52:00,67.0,59.5,30.00,SSW,192,0.0,0.0,77,0.00,,,0.00,Wunderground v.1.15,2013-06-13 15:52:00,
2013-06-13 08:56:00,67.0,59.5,30.00,SSW,192,0.0,2.0,77,0.00,,,0.00,Wunderground v.1.15,2013-06-13 15:56:00,
2013-06-13 08:58:00,66.9,59.8,30.00,SSW,192,0.0,2.0,78,0.00,,,0.00,Wunderground v.1.15,2013-06-13 15:58:00,
2013-06-13 09:04:00,66.8,59.7,30.00,SW,236,0.0,1.0,78,0.00,,,0.00,Wunderground v.1.15,2013-06-13 16:04:00,
2013-06-13 09:06:00,66.9,59.8,30.00,SW,233,1.0,4.0,78,0.00,,,0.00,Wunderground v.1.15,2013-06-13 16:06:00,
2013-06-13 09:12:00,66.8,59.4,30.00,SW,226,2.0,3.0,77,0.00,,,0.00,Wunderground v.1.15,2013-06-13 16:12:00,
2013-06-13 09:14:00,66.8,59.7,30.00,SW,225,2.0,3.0,78,0.00,,,0.00,Wunderground v.1.15,2013-06-13 16:14:00,
2013-06-13 09:18:00,66.7,59.6,30.00,SW,227,3.0,4.0,78,0.00,,,0.00,Wunderground v.1.15,2013-06-13 16:18:00,
2013-06-13 09:20:00,66.7,59.6,30.00,SW,225,3.0,4.0,78,0.00,,,0.00,Wunderground v.1.15,2013-06-13 16:20:00,
2013-06-13 09:24:00,66.7,59.6,30.00,SW,232,3.0,4.0,78,0.00,,,0.00,Wunderground v.1.15,2013-06-13 16:24:00,
2013-06-13 09:26:00,66.8,59.7,30.00,SW,231,3.0,4.0,78,0.00,,,0.00,Wunderground v.1.15,2013-06-13 16:26:00,
2013-06-13 09:30:00,67.0,59.5,30.00,SW,219,2.0,4.0,77,0.00,,,0.00,Wunderground v.1.15,2013-06-13 16:30:00,
2013-06-13 09:34:00,67.1,59.6,30.00,WSW,244,2.0,4.0,77,0.00,,,0.00,Wunderground v.1.15,2013-06-13 16:34:00,
2013-06-13 09:36:00,67.2,59.7,30.00,WSW,244,2.0,4.0,77,0.00,,,0.00,Wunderground v.1.15,2013-06-13 16:36:00,
2013-06-13 09:38:00,67.2,59.7,30.00,SW,234,2.0,4.0,77,0.00,,,0.00,Wunderground v.1.15,2013-06-13 16:38:00,
2013-06-13 09:40:00,67.2,59.7,30.00,SW,231,2.0,2.0,77,0.00,,,0.00,Wunderground v.1.15,2013-06-13 16:40:00,
2013-06-13 09:44:00,67.4,59.9,30.00,SW,227,2.0,5.0,77,0.00,,,0.00,Wunderground v.1.15,2013-06-13 16:44:00,
2013-06-13 09:46:00,67.5,59.7,30.00,SSW,213,3.0,5.0,76,0.00,,,0.00,Wunderground v.1.15,2013-06-13 16:46:00,
2013-06-13 09:50:00,67.4,59.6,30.00,SW,223,3.0,3.0,76,0.00,,,0.00,Wunderground v.1.15,2013-06-13 16:50:00,
2013-06-13 09:52:00,67.4,59.9,30.00,SSW,203,3.0,3.0,77,0.00,,,0.00,Wunderground v.1.15,2013-06-13 16:52:00,
2013-06-13 09:56:00,67.4,59.9,30.00,SSW,204,3.0,4.0,77,0.00,,,0.00,Wunderground v.1.15,2013-06-13 16:56:00,
2013-06-13 09:58:00,67.4,59.9,30.00,SW,230,3.0,4.0,77,0.00,,,0.00,Wunderground v.1.15,2013-06-13 16:58:00,
2013-06-13 10:02:00,67.4,59.9,30.00,SW,232,3.0,6.0,77,0.00,,,0.00,Wunderground v.1.15,2013-06-13 17:02:00,
2013-06-13 10:04:00,67.4,59.9,30.00,SSW,202,4.0,6.0,77,0.00,,,0.00,Wunderground v.1.15,2013-06-13 17:04:00,
2013-06-13 10:06:00,67.5,59.7,30.00,SSW,198,4.0,6.0,76,0.00,,,0.00,Wunderground v.1.15,2013-06-13 17:06:00,
2013-06-13 10:10:00,67.7,59.9,30.00,SSW,200,3.0,3.0,76,0.00,,,0.00,Wunderground v.1.15,2013-06-13 17:10:00,
2013-06-13 10:12:00,67.8,60.0,30.01,SSW,209,3.0,3.0,76,0.00,,,0.00,Wunderground v.1.15,2013-06-13 17:12:00,
2013-06-13 10:14:00,67.9,60.1,30.00,SSW,196,3.0,3.0,76,0.00,,,0.00,Wunderground v.1.15,2013-06-13 17:14:00,
2013-06-13 10:18:00,68.3,60.1,30.00,SW,214,3.0,4.0,75,0.00,,,0.00,Wunderground v.1.15,2013-06-13 17:18:00,
2013-06-13 10:24:00,68.2,60.0,30.00,SW,227,3.0,4.0,75,0.00,,,0.00,Wunderground v.1.15,2013-06-13 17:24:00,
2013-06-13 10:26:00,68.3,60.1,30.00,South,172,4.0,4.0,75,0.00,,,0.00,Wunderground v.1.15,2013-06-13 17:26:00,
2013-06-13 10:28:00,68.4,60.2,30.00,South,190,3.0,4.0,75,0.00,,,0.00,Wunderground v.1.15,2013-06-13 17:28:00,
2013-06-13 12:26:00,71.3,61.4,29.99,SW,214,5.0,6.0,71,0.00,,,0.00,Wunderground v.1.15,2013-06-13 19:26:00,
2013-06-13 12:28:00,71.4,61.1,29.99,West,270,5.0,6.0,70,0.00,,,0.00,Wunderground v.1.15,2013-06-13 19:28:00,
2013-06-13 12:32:00,71.8,61.5,29.99,SW,215,4.0,6.0,70,0.00,,,0.00,Wunderground v.1.15,2013-06-13 19:32:00,
2013-06-13 12:34:00,71.9,61.2,29.99,South,180,4.0,6.0,69,0.00,,,0.00,Wunderground v.1.15,2013-06-13 19:34:00,
2013-06-13 12:36:00,72.1,61.4,29.99,WSW,252,3.0,3.0,69,0.00,,,0.00,Wunderground v.1.15,2013-06-13 19:36:00,
2013-06-13 12:38:00,72.4,61.7,29.99,SSE,161,3.0,3.0,69,0.00,,,0.00,Wunderground v.1.15,2013-06-13 19:38:00,
2013-06-13 12:42:00,72.5,60.9,29.99,WSW,249,4.0,9.0,67,0.00,,,0.00,Wunderground v.1.15,2013-06-13 19:42:00,
2013-06-13 12:44:00,72.3,61.6,29.99,SSW,212,5.0,9.0,69,0.00,,,0.00,Wunderground v.1.15,2013-06-13 19:44:00,
2013-06-13 12:46:00,72.1,61.4,29.99,SW,225,5.0,10.0,69,0.00,,,0.00,Wunderground v.1.15,2013-06-13 19:46:00,
2013-06-13 12:48:00,71.9,61.2,29.99,SSW,203,5.0,10.0,69,0.00,,,0.00,Wunderground v.1.15,2013-06-13 19:48:00,
2013-06-13 12:52:00,71.8,61.1,29.98,WSW,246,5.0,10.0,69,0.00,,,0.00,Wunderground v.1.15,2013-06-13 19:52:00,
2013-06-13 12:54:00,71.8,61.5,29.99,SSW,204,5.0,10.0,70,0.00,,,0.00,Wunderground v.1.15,2013-06-13 19:54:00,
2013-06-13 12:58:00,72.0,61.3,29.98,SSW,209,4.0,8.0,69,0.00,,,0.00,Wunderground v.1.15,2013-06-13 19:58:00,
2013-06-13 13:00:00,72.1,61.4,29.98,SSW,212,5.0,6.0,69,0.00,,,0.00,Wunderground v.1.15,2013-06-13 20:00:00,
2013-06-13 13:02:00,72.1,61.4,29.98,South,178,5.0,6.0,69,0.00,,,0.00,Wunderground v.1.15,2013-06-13 20:02:00,
2013-06-13 13:06:00,72.1,61.8,29.98,WSW,249,6.0,7.0,70,0.00,,,0.00,Wunderground v.1.15,2013-06-13 20:06:00,
2013-06-13 13:08:00,72.1,61.4,29.98,SW,228,6.0,7.0,69,0.00,,,0.00,Wunderground v.1.15,2013-06-13 20:08:00,
2013-06-13 13:12:00,72.2,61.5,29.98,South,190,5.0,9.0,69,0.00,,,0.00,Wunderground v.1.15,2013-06-13 20:12:00,
2013-06-13 13:18:00,71.9,61.6,29.98,SSW,206,5.0,9.0,70,0.00,,,0.00,Wunderground v.1.15,2013-06-13 20:18:00,
2013-06-13 13:20:00,72.2,61.9,29.98,South,186,6.0,6.0,70,0.00,,,0.00,Wunderground v.1.15,2013-06-13 20:20:00,
2013-06-13 13:22:00,72.2,61.5,29.98,SSW,194,5.0,6.0,69,0.00,,,0.00,Wunderground v.1.15,2013-06-13 20:22:00,
2013-06-13 13:28:00,72.2,61.9,29.98,South,177,5.0,8.0,70,0.00,,,0.00,Wunderground v.1.15,2013-06-13 20:28:00,
2013-06-13 13:30:00,72.1,62.2,29.97,South,169,5.0,5.0,71,0.00,,,0.00,Wunderground v.1.15,2013-06-13 20:30:00,
2013-06-13 13:32:00,72.2,62.3,29.98,West,266,5.0,5.0,71,0.00,,,0.00,Wunderground v.1.15,2013-06-13 20:32:00,
2013-06-13 13:38:00,72.4,62.1,29.98,WSW,242,4.0,6.0,70,0.00,,,0.00,Wunderground v.1.15,2013-06-13 20:38:00,
2013-06-13 13:40:00,72.3,62.0,29.97,SW,227,5.0,5.0,70,0.00,,,0.00,Wunderground v.1.15,2013-06-13 20:40:00,
2013-06-13 13:44:00,72.1,61.8,29.97,WSW,244,5.0,6.0,70,0.00,,,0.00,Wunderground v.1.15,2013-06-13 20:44:00,
2013-06-13 13:46:00,71.8,61.5,29.97,WSW,238,5.0,8.0,70,0.00,,,0.00,Wunderground v.1.15,2013-06-13 20:46:00,
2013-06-13 13:48:00,71.7,61.4,29.97,SSW,213,5.0,8.0,70,0.00,,,0.00,Wunderground v.1.15,2013-06-13 20:48:00,
2013-06-13 13:50:00,71.7,61.8,29.97,SSW,206,5.0,9.0,71,0.00,,,0.00,Wunderground v.1.15,2013-06-13 20:50:00,
2013-06-13 13:52:00,71.7,61.4,29.97,SSW,213,6.0,9.0,70,0.00,,,0.00,Wunderground v.1.15,2013-06-13 20:52:00,
2013-06-13 13:54:00,71.7,61.4,29.97,South,188,6.0,9.0,70,0.00,,,0.00,Wunderground v.1.15,2013-06-13 20:54:00,
2013-06-13 13:56:00,71.8,61.5,29.97,SSW,198,6.0,9.0,70,0.00,,,0.00,Wunderground v.1.15,2013-06-13 20:56:00,
2013-06-13 14:00:00,72.1,61.8,29.96,SW,220,6.0,7.0,70,0.00,,,0.00,Wunderground v.1.15,2013-06-13 21:00:00,
2013-06-13 14:02:00,72.1,61.8,29.96,South,176,6.0,7.0,70,0.00,,,0.00,Wunderground v.1.15,2013-06-13 21:02:00,
2013-06-13 14:04:00,72.1,61.8,29.96,SSW,194,6.0,10.0,70,0.00,,,0.00,Wunderground v.1.15,2013-06-13 21:04:00,
2013-06-13 14:10:00,71.6,61.7,29.96,South,188,6.0,7.0,71,0.00,,,0.00,Wunderground v.1.15,2013-06-13 21:10:00,
2013-06-13 14:12:00,71.8,61.9,29.96,SW,233,6.0,10.0,71,0.00,,,0.00,Wunderground v.1.15,2013-06-13 21:12:00,
2013-06-13 14:14:00,71.7,61.4,29.96,SSW,210,6.0,10.0,70,0.00,,,0.00,Wunderground v.1.15,2013-06-13 21:14:00,
2013-06-13 14:16:00,71.7,61.8,29.96,WSW,246,6.0,10.0,71,0.00,,,0.00,Wunderground v.1.15,2013-06-13 21:16:00,
2013-06-13 14:20:00,71.8,61.5,29.96,SSW,192,6.0,6.0,70,0.00,,,0.00,Wunderground v.1.15,2013-06-13 21:20:00,
2013-06-13 14:22:00,71.9,62.0,29.96,SW,220,6.0,6.0,71,0.00,,,0.00,Wunderground v.1.15,2013-06-13 21:22:00,
2013-06-13 14:26:00,71.8,61.5,29.96,SSW,204,6.0,9.0,70,0.00,,,0.00,Wunderground v.1.15,2013-06-13 21:26:00,
2013-06-13 14:28:00,71.5,61.2,29.95,SSW,198,6.0,13.0,70,0.00,,,0.00,Wunderground v.1.15,2013-06-13 21:28:00,
2013-06-13 14:30:00,71.3,61.8,29.95,SW,217,7.0,7.0,72,0.00,,,0.00,Wunderground v.1.15,2013-06-13 21:30:00,
2013-06-13 14:34:00,71.6,61.7,29.95,SSW,192,7.0,10.0,71,0.00,,,0.00,Wunderground v.1.15,2013-06-13 21:34:00,
2013-06-13 14:36:00,71.6,61.3,29.95,SSW,205,7.0,10.0,70,0.00,,,0.00,Wunderground v.1.15,2013-06-13 21:36:00,
2013-06-13 14:40:00,71.6,61.7,29.95,South,184,7.0,7.0,71,0.00,,,0.00,Wunderground v.1.15,2013-06-13 21:40:00,
2013-06-13 14:42:00,71.6,61.7,29.95,SSW,213,7.0,7.0,71,0.00,,,0.00,Wunderground v.1.15,2013-06-13 21:42:00,
2013-06-13 14:44:00,71.6,61.3,29.95,WSW,247,7.0,7.0,70,0.00,,,0.00,Wunderground v.1.15,2013-06-13 21:44:00,
2013-06-13 14:46:00,71.6,62.1,29.95,WSW,255,6.0,7.0,72,0.00,,,0.00,Wunderground v.1.15,2013-06-13 21:46:00,
2013-06-13 14:48:00,71.7,61.8,29.95,SW,235,6.0,7.0,71,0.00,,,0.00,Wunderground v.1.15,2013-06-13 21:48:00,
2013-06-13 14:50:00,71.9,61.6,29.95,South,169,6.0,7.0,70,0.00,,,0.00,Wunderground v.1.15,2013-06-13 21:50:00,
2013-06-13 14:54:00,71.7,61.4,29.95,SSW,212,6.0,9.0,70,0.00,,,0.00,Wunderground v.1.15,2013-06-13 21:54:00,
2013-06-13 14:56:00,71.6,61.7,29.95,SSW,211,7.0,9.0,71,0.00,,,0.00,Wunderground v.1.15,2013-06-13 21:56:00,
2013-06-13 14:58:00,71.6,61.7,29.95,SW,214,7.0,9.0,71,0.00,,,0.00,Wunderground v.1.15,2013-06-13 21:58:00,
2013-06-13 15:00:00,71.6,61.7,29.95,SSE,159,7.0,7.0,71,0.00,,,0.00,Wunderground v.1.15,2013-06-13 22:00:00,
2013-06-13 15:02:00,71.7,61.4,29.95,SW,221,7.0,7.0,70,0.00,,,0.00,Wunderground v.1.15,2013-06-13 22:02:00,
2013-06-13 15:04:00,71.8,61.9,29.94,SW,229,6.0,7.0,71,0.00,,,0.00,Wunderground v.1.15,2013-06-13 22:04:00,
2013-06-13 15:06:00,71.8,61.5,29.95,SW,228,6.0,10.0,70,0.00,,,0.00,Wunderground v.1.15,2013-06-13 22:06:00,
2013-06-13 15:08:00,71.8,61.5,29.94,SSW,206,6.0,10.0,70,0.00,,,0.00,Wunderground v.1.15,2013-06-13 22:08:00,
2013-06-13 15:10:00,71.9,61.6,29.94,SW,221,6.0,6.0,70,0.00,,,0.00,Wunderground v.1.15,2013-06-13 22:10:00,
2013-06-13 15:12:00,71.9,61.2,29.94,SSW,192,6.0,6.0,69,0.00,,,0.00,Wunderground v.1.15,2013-06-13 22:12:00,
2013-06-13 15:16:00,71.9,61.6,29.94,SW,215,7.0,7.0,70,0.00,,,0.00,Wunderground v.1.15,2013-06-13 22:16:00,
2013-06-13 15:18:00,71.9,61.6,29.94,SW,217,7.0,7.0,70,0.00,,,0.00,Wunderground v.1.15,2013-06-13 22:18:00,
2013-06-13 15:22:00,72.4,61.7,29.94,WSW,237,6.0,7.0,69,0.00,,,0.00,Wunderground v.1.15,2013-06-13 22:22:00,
2013-06-13 15:24:00,72.4,62.1,29.94,SW,221,6.0,7.0,70,0.00,,,0.00,Wunderground v.1.15,2013-06-13 22:24:00,
2013-06-13 15:28:00,72.4,61.7,29.94,SSW,200,6.0,9.0,69,0.00,,,0.00,Wunderground v.1.15,2013-06-13 22:28:00,
2013-06-13 15:30:00,72.5,62.2,29.94,WSW,238,6.0,10.0,70,0.00,,,0.00,Wunderground v.1.15,2013-06-13 22:30:00,
2013-06-13 15:34:00,72.2,61.5,29.94,South,187,6.0,11.0,69,0.00,,,0.00,Wunderground v.1.15,2013-06-13 22:34:00,
2013-06-13 15:36:00,71.7,61.0,29.93,South,186,7.0,11.0,69,0.00,,,0.00,Wunderground v.1.15,2013-06-13 22:36:00,
2013-06-13 15:38:00,71.6,60.9,29.93,SW,218,8.0,11.0,69,0.00,,,0.00,Wunderground v.1.15,2013-06-13 22:38:00,
2013-06-13 15:40:00,71.7,61.4,29.93,SW,226,8.0,12.0,70,0.00,,,0.00,Wunderground v.1.15,2013-06-13 22:40:00,
2013-06-13 15:42:00,71.6,60.9,29.93,SW,217,8.0,12.0,69,0.00,,,0.00,Wunderground v.1.15,2013-06-13 22:42:00,
2013-06-13 15:44:00,71.5,60.8,29.93,WSW,246,8.0,12.0,69,0.00,,,0.00,Wunderground v.1.15,2013-06-13 22:44:00,
2013-06-13 15:48:00,71.6,61.7,29.93,SSW,196,7.0,12.0,71,0.00,,,0.00,Wunderground v.1.15,2013-06-13 22:48:00,
2013-06-13 15:52:00,72.1,61.4,29.93,South,190,7.0,7.0,69,0.00,,,0.00,Wunderground v.1.15,2013-06-13 22:52:00,
2013-06-13 15:56:00,72.0,61.3,29.92,SW,221,7.0,7.0,69,0.00,,,0.00,Wunderground v.1.15,2013-06-13 22:56:00,
2013-06-13 15:58:00,71.9,61.6,29.92,WSW,245,7.0,7.0,70,0.00,,,0.00,Wunderground v.1.15,2013-06-13 22:58:00,
2013-06-13 16:02:00,71.8,61.1,29.92,SW,227,7.0,11.0,69,0.00,,,0.00,Wunderground v.1.15,2013-06-13 23:02:00,
2013-06-13 16:04:00,71.7,61.4,29.92,West,264,7.0,11.0,70,0.00,,,0.00,Wunderground v.1.15,2013-06-13 23:04:00,
2013-06-13 16:06:00,71.6,61.3,29.92,SW,236,7.0,11.0,70,0.00,,,0.00,Wunderground v.1.15,2013-06-13 23:06:00,
2013-06-13 16:08:00,71.6,61.3,29.92,South,184,7.0,11.0,70,0.00,,,0.00,Wunderground v.1.15,2013-06-13 23:08:00,
2013-06-13 16:12:00,71.5,61.2,29.92,SW,222,7.0,9.0,70,0.00,,,0.00,Wunderground v.1.15,2013-06-13 23:12:00,
2013-06-13 16:14:00,71.3,61.0,29.91,SW,223,7.0,9.0,70,0.00,,,0.00,Wunderground v.1.15,2013-06-13 23:14:00,
2013-06-13 16:16:00,71.4,61.5,29.92,SW,221,7.0,9.0,71,0.00,,,0.00,Wunderground v.1.15,2013-06-13 23:16:00,
2013-06-13 16:18:00,71.6,61.7,29.91,SW,219,7.0,9.0,71,0.00,,,0.00,Wunderground v.1.15,2013-06-13 23:18:00,
2013-06-13 16:20:00,71.8,61.5,29.91,South,191,7.0,12.0,70,0.00,,,0.00,Wunderground v.1.15,2013-06-13 23:20:00,
2013-06-13 16:22:00,71.8,61.5,29.91,South,186,7.0,12.0,70,0.00,,,0.00,Wunderground v.1.15,2013-06-13 23:22:00,
2013-06-13 16:26:00,72.2,61.9,29.91,South,180,6.0,12.0,70,0.00,,,0.00,Wunderground v.1.15,2013-06-13 23:26:00,
2013-06-13 16:28:00,72.4,61.2,29.91,WSW,244,6.0,12.0,68,0.00,,,0.00,Wunderground v.1.15,2013-06-13 23:28:00,
2013-06-13 16:30:00,72.3,61.6,29.91,SW,230,7.0,7.0,69,0.00,,,0.00,Wunderground v.1.15,2013-06-13 23:30:00,
2013-06-13 16:32:00,72.3,61.6,29.91,SSW,198,6.0,7.0,69,0.00,,,0.00,Wunderground v.1.15,2013-06-13 23:32:00,
2013-06-13 16:42:00,72.3,61.6,29.90,SSW,208,6.0,6.0,69,0.00,,,0.00,Wunderground v.1.15,2013-06-13 23:42:00,
2013-06-13 16:46:00,72.6,61.8,29.90,SSW,211,6.0,10.0,69,0.00,,,0.00,Wunderground v.1.15,2013-06-13 23:46:00,
2013-06-13 16:48:00,72.9,61.7,29.90,SSW,213,5.0,10.0,68,0.00,,,0.00,Wunderground v.1.15,2013-06-13 23:48:00,
2013-06-13 16:52:00,73.0,61.8,29.90,SSW,207,5.0,5.0,68,0.00,,,0.00,Wunderground v.1.15,2013-06-13 23:52:00,
2013-06-13 16:54:00,73.0,61.8,29.90,SSW,208,5.0,5.0,68,0.00,,,0.00,Wunderground v.1.15,2013-06-13 23:54:00,
2013-06-13 16:56:00,73.0,61.8,29.90,SW,229,5.0,12.0,68,0.00,,,0.00,Wunderground v.1.15,2013-06-13 23:56:00,
2013-06-13 16:58:00,73.0,61.8,29.90,SSW,202,5.0,12.0,68,0.00,,,0.00,Wunderground v.1.15,2013-06-13 23:58:00,
2013-06-13 17:00:00,73.1,61.9,29.90,SW,221,5.0,10.0,68,0.00,,,0.00,Wunderground v.1.15,2013-06-14 00:00:00,
2013-06-13 17:02:00,73.2,62.0,29.90,SW,221,5.0,10.0,68,0.00,,,0.00,Wunderground v.1.15,2013-06-14 00:02:00,
2013-06-13 17:06:00,73.3,62.1,29.90,SW,224,5.0,10.0,68,0.00,,,0.00,Wunderground v.1.15,2013-06-14 00:06:00,
2013-06-13 17:08:00,73.3,62.1,29.90,SSW,207,5.0,10.0,68,0.00,,,0.00,Wunderground v.1.15,2013-06-14 00:08:00,
2013-06-13 17:10:00,73.4,62.2,29.89,SW,229,6.0,6.0,68,0.00,,,0.00,Wunderground v.1.15,2013-06-14 00:10:00,
2013-06-13 17:18:00,74.2,62.5,29.89,SW,218,5.0,6.0,67,0.00,,,0.00,Wunderground v.1.15,2013-06-14 00:18:00,
2013-06-13 17:20:00,74.2,62.5,29.89,SW,231,4.0,5.0,67,0.00,,,0.00,Wunderground v.1.15,2013-06-14 00:20:00,
2013-06-13 17:24:00,74.3,62.6,29.89,WSW,252,4.0,5.0,67,0.00,,,0.00,Wunderground v.1.15,2013-06-14 00:24:00,
2013-06-13 17:28:00,74.7,62.6,29.89,NNW,335,2.0,5.0,66,0.00,,,0.00,Wunderground v.1.15,2013-06-14 00:28:00,
2013-06-13 17:32:00,75.1,62.5,29.89,WNW,298,3.0,4.0,65,0.00,,,0.00,Wunderground v.1.15,2013-06-14 00:32:00,
2013-06-13 17:34:00,75.2,62.6,29.89,West,274,3.0,11.0,65,0.00,,,0.00,Wunderground v.1.15,2013-06-14 00:34:00,
2013-06-13 17:38:00,75.2,62.2,29.88,WNW,290,5.0,11.0,64,0.00,,,0.00,Wunderground v.1.15,2013-06-14 00:38:00,
2013-06-13 17:40:00,75.2,62.6,29.88,WNW,298,5.0,5.0,65,0.00,,,0.00,Wunderground v.1.15,2013-06-14 00:40:00,
2013-06-13 17:44:00,75.3,62.7,29.88,WNW,282,5.0,5.0,65,0.00,,,0.00,Wunderground v.1.15,2013-06-14 00:44:00,
2013-06-13 17:46:00,75.4,62.8,29.89,NNW,328,4.0,5.0,65,0.00,,,0.00,Wunderground v.1.15,2013-06-14 00:46:00,
2013-06-13 17:50:00,75.5,62.5,29.89,West,275,4.0,7.0,64,0.00,,,0.00,Wunderground v.1.15,2013-06-14 00:50:00,
2013-06-13 17:52:00,75.3,61.8,29.89,WNW,287,5.0,7.0,63,0.00,,,0.00,Wunderground v.1.15,2013-06-14 00:52:00,
2013-06-13 17:56:00,74.7,62.1,29.89,NW,318,5.0,7.0,65,0.00,,,0.00,Wunderground v.1.15,2013-06-14 00:56:00,
2013-06-13 17:58:00,74.7,62.1,29.89,West,263,5.0,7.0,65,0.00,,,0.00,Wunderground v.1.15,2013-06-14 00:58:00,
2013-06-13 18:02:00,74.5,62.0,29.88,West,279,5.0,7.0,65,0.00,,,0.00,Wunderground v.1.15,2013-06-14 01:02:00,
2013-06-13 18:08:00,74.3,61.8,29.88,NW,317,4.0,7.0,65,0.00,,,0.00,Wunderground v.1.15,2013-06-14 01:08:00,
2013-06-13 18:10:00,74.3,62.2,29.88,West,277,4.0,6.0,66,0.00,,,0.00,Wunderground v.1.15,2013-06-14 01:10:00,
2013-06-13 18:14:00,74.0,61.5,29.88,WNW,299,5.0,7.0,65,0.00,,,0.00,Wunderground v.1.15,2013-06-14 01:14:00,
2013-06-13 18:16:00,73.8,61.7,29.88,NNW,329,5.0,7.0,66,0.00,,,0.00,Wunderground v.1.15,2013-06-14 01:16:00,
2013-06-13 18:18:00,73.7,61.6,29.88,WNW,292,5.0,7.0,66,0.00,,,0.00,Wunderground v.1.15,2013-06-14 01:18:00,
2013-06-13 18:20:00,73.4,61.3,29.88,NW,311,5.0,5.0,66,0.00,,,0.00,Wunderground v.1.15,2013-06-14 01:20:00,
2013-06-13 18:22:00,73.3,61.3,29.88,NNW,346,6.0,8.0,66,0.00,,,0.00,Wunderground v.1.15,2013-06-14 01:22:00,
2013-06-13 18:24:00,73.1,61.5,29.88,NW,314,6.0,8.0,67,0.00,,,0.00,Wunderground v.1.15,2013-06-14 01:24:00,
2013-06-13 18:26:00,73.0,61.4,29.88,WNW,302,6.0,8.0,67,0.00,,,0.00,Wunderground v.1.15,2013-06-14 01:26:00,
2013-06-13 18:28:00,72.8,61.2,29.88,WNW,286,6.0,8.0,67,0.00,,,0.00,Wunderground v.1.15,2013-06-14 01:28:00,
2013-06-13 18:32:00,72.5,61.3,29.88,NW,317,6.0,6.0,68,0.00,,,0.00,Wunderground v.1.15,2013-06-14 01:32:00,
2013-06-13 18:34:00,72.4,61.2,29.88,NNW,339,5.0,6.0,68,0.00,,,0.00,Wunderground v.1.15,2013-06-14 01:34:00,
2013-06-13 18:38:00,72.4,61.2,29.88,NW,308,5.0,11.0,68,0.00,,,0.00,Wunderground v.1.15,2013-06-14 01:38:00,
2013-06-13 18:40:00,72.3,61.1,29.88,WNW,294,5.0,9.0,68,0.00,,,0.00,Wunderground v.1.15,2013-06-14 01:40:00,
2013-06-13 18:44:00,71.8,60.7,29.89,West,275,6.0,9.0,68,0.00,,,0.00,Wunderground v.1.15,2013-06-14 01:44:00,
2013-06-13 18:46:00,71.6,60.9,29.88,West,277,7.0,9.0,69,0.00,,,0.00,Wunderground v.1.15,2013-06-14 01:46:00,
2013-06-13 18:52:00,71.2,60.9,29.89,West,276,6.0,10.0,70,0.00,,,0.00,Wunderground v.1.15,2013-06-14 01:52:00,
2013-06-13 18:54:00,71.1,60.8,29.89,WNW,284,6.0,10.0,70,0.00,,,0.00,Wunderground v.1.15,2013-06-14 01:54:00,
2013-06-13 18:56:00,70.9,60.6,29.89,West,279,6.0,10.0,70,0.00,,,0.00,Wunderground v.1.15,2013-06-14 01:56:00,
2013-06-13 18:58:00,70.7,60.8,29.89,WNW,289,7.0,10.0,71,0.00,,,0.00,Wunderground v.1.15,2013-06-14 01:58:00,
2013-06-13 19:00:00,70.5,60.6,29.89,WNW,285,7.0,7.0,71,0.00,,,0.00,Wunderground v.1.15,2013-06-14 02:00:00,
2013-06-13 19:02:00,70.5,60.6,29.89,WNW,285,6.0,7.0,71,0.00,,,0.00,Wunderground v.1.15,2013-06-14 02:02:00,
2013-06-13 19:04:00,70.4,60.5,29.89,WNW,286,6.0,7.0,71,0.00,,,0.00,Wunderground v.1.15,2013-06-14 02:04:00,
2013-06-13 19:10:00,70.2,60.7,29.89,NW,311,5.0,5.0,72,0.00,,,0.00,Wunderground v.1.15,2013-06-14 02:10:00,
2013-06-13 19:12:00,70.2,60.7,29.89,NW,306,4.0,5.0,72,0.00,,,0.00,Wunderground v.1.15,2013-06-14 02:12:00,
2013-06-13 19:16:00,70.1,60.7,29.89,NW,317,4.0,5.0,72,0.00,,,0.00,Wunderground v.1.15,2013-06-14 02:16:00,
2013-06-13 19:18:00,70.0,60.6,29.89,NW,310,4.0,5.0,72,0.00,,,0.00,Wunderground v.1.15,2013-06-14 02:18:00,
2013-06-13 19:22:00,69.6,60.6,29.89,WNW,298,5.0,5.0,73,0.00,,,0.00,Wunderground v.1.15,2013-06-14 02:22:00,
2013-06-13 19:26:00,69.4,60.4,29.89,WNW,290,5.0,5.0,73,0.00,,,0.00,Wunderground v.1.15,2013-06-14 02:26:00,
2013-06-13 19:28:00,69.2,60.2,29.89,NW,323,4.0,5.0,73,0.00,,,0.00,Wunderground v.1.15,2013-06-14 02:28:00,
2013-06-13 19:30:00,69.0,60.4,29.89,NW,304,4.0,4.0,74,0.00,,,0.00,Wunderground v.1.15,2013-06-14 02:30:00,
2013-06-13 19:34:00,68.8,60.2,29.89,NW,305,4.0,4.0,74,0.00,,,0.00,Wunderground v.1.15,2013-06-14 02:34:00,
2013-06-13 19:36:00,68.7,60.1,29.89,WNW,290,4.0,5.0,74,0.00,,,0.00,Wunderground v.1.15,2013-06-14 02:36:00,
2013-06-13 19:38:00,68.6,60.0,29.89,WNW,289,4.0,5.0,74,0.00,,,0.00,Wunderground v.1.15,2013-06-14 02:38:00,
2013-06-13 19:42:00,68.4,60.2,29.89,NW,325,4.0,5.0,75,0.00,,,0.00,Wunderground v.1.15,2013-06-14 02:42:00,
2013-06-13 19:44:00,68.3,60.1,29.89,NW,321,4.0,5.0,75,0.00,,,0.00,Wunderground v.1.15,2013-06-14 02:44:00,
2013-06-13 19:48:00,68.1,59.9,29.89,WNW,300,3.0,6.0,75,0.00,,,0.00,Wunderground v.1.15,2013-06-14 02:48:00,
2013-06-13 19:50:00,67.8,59.6,29.89,WNW,288,3.0,6.0,75,0.00,,,0.00,Wunderground v.1.15,2013-06-14 02:50:00,
2013-06-13 19:54:00,67.5,59.7,29.89,WNW,285,4.0,6.0,76,0.00,,,0.00,Wunderground v.1.15,2013-06-14 02:54:00,
2013-06-13 19:56:00,67.3,59.8,29.89,NW,309,4.0,6.0,77,0.00,,,0.00,Wunderground v.1.15,2013-06-14 02:56:00,
2013-06-13 19:58:00,67.2,59.7,29.89,NW,309,3.0,6.0,77,0.00,,,0.00,Wunderground v.1.15,2013-06-14 02:58:00,
2013-06-13 20:02:00,67.0,59.5,29.89,West,278,3.0,7.0,77,0.00,,,0.00,Wunderground v.1.15,2013-06-14 03:02:00,
2013-06-13 20:04:00,66.8,59.7,29.89,WNW,294,3.0,7.0,78,0.00,,,0.00,Wunderground v.1.15,2013-06-14 03:04:00,
2013-06-13 20:06:00,66.7,59.6,29.89,WNW,294,3.0,7.0,78,0.00,,,0.00,Wunderground v.1.15,2013-06-14 03:06:00,
2013-06-13 20:08:00,66.6,59.5,29.90,WNW,296,4.0,7.0,78,0.00,,,0.00,Wunderground v.1.15,2013-06-14 03:08:00,
2013-06-13 20:10:00,66.4,59.3,29.90,NW,318,4.0,4.0,78,0.00,,,0.00,Wunderground v.1.15,2013-06-14 03:10:00,
2013-06-13 20:12:00,66.3,59.6,29.90,NW,312,4.0,4.0,79,0.00,,,0.00,Wunderground v.1.15,2013-06-14 03:12:00,
2013-06-13 20:18:00,66.0,59.3,29.90,NW,318,4.0,5.0,79,0.00,,,0.00,Wunderground v.1.15,2013-06-14 03:18:00,
2013-06-13 20:20:00,65.9,59.2,29.90,WNW,301,3.0,3.0,79,0.00,,,0.00,Wunderground v.1.15,2013-06-14 03:20:00,
2013-06-13 20:22:00,65.9,59.2,29.90,WNW,298,3.0,3.0,79,0.00,,,0.00,Wunderground v.1.15,2013-06-14 03:22:00,
2013-06-13 20:26:00,65.7,59.4,29.90,NW,305,3.0,5.0,80,0.00,,,0.00,Wunderground v.1.15,2013-06-14 03:26:00,
2013-06-13 20:28:00,65.6,59.3,29.90,WNW,290,3.0,5.0,80,0.00,,,0.00,Wunderground v.1.15,2013-06-14 03:28:00,
2013-06-13 20:30:00,65.6,59.3,29.90,WNW,293,3.0,3.0,80,0.00,,,0.00,Wunderground v.1.15,2013-06-14 03:30:00,
2013-06-13 20:32:00,65.5,59.2,29.90,WNW,294,3.0,3.0,80,0.00,,,0.00,Wunderground v.1.15,2013-06-14 03:32:00,
2013-06-13 20:38:00,65.3,59.3,29.90,WNW,296,3.0,5.0,81,0.00,,,0.00,Wunderground v.1.15,2013-06-14 03:38:00,
2013-06-13 20:40:00,65.2,59.2,29.90,WNW,298,3.0,3.0,81,0.00,,,0.00,Wunderground v.1.15,2013-06-14 03:40:00,
2013-06-13 20:42:00,65.2,59.2,29.90,WNW,298,3.0,5.0,81,0.00,,,0.00,Wunderground v.1.15,2013-06-14 03:42:00,
2013-06-13 20:46:00,65.0,59.0,29.90,WNW,297,3.0,5.0,81,0.00,,,0.00,Wunderground v.1.15,2013-06-14 03:46:00,
2013-06-13 20:48:00,65.0,59.0,29.90,WNW,294,3.0,5.0,81,0.00,,,0.00,Wunderground v.1.15,2013-06-14 03:48:00,
2013-06-13 20:52:00,64.9,59.3,29.90,WNW,302,3.0,4.0,82,0.00,,,0.00,Wunderground v.1.15,2013-06-14 03:52:00,
2013-06-13 20:54:00,64.8,59.2,29.90,WNW,302,3.0,4.0,82,0.00,,,0.00,Wunderground v.1.15,2013-06-14 03:54:00,
2013-06-13 20:56:00,64.7,59.1,29.90,WNW,303,3.0,4.0,82,0.00,,,0.00,Wunderground v.1.15,2013-06-14 03:56:00,
2013-06-13 20:58:00,64.7,59.1,29.90,NW,305,3.0,4.0,82,0.00,,,0.00,Wunderground v.1.15,2013-06-14 03:58:00,
2013-06-13 21:00:00,64.6,59.0,29.91,NW,306,2.0,3.0,82,0.00,,,0.00,Wunderground v.1.15,2013-06-14 04:00:00,
2013-06-13 21:02:00,64.5,58.9,29.91,NW,305,3.0,3.0,82,0.00,,,0.00,Wunderground v.1.15,2013-06-14 04:02:00,
2013-06-13 21:04:00,64.5,58.9,29.91,WNW,303,2.0,5.0,82,0.00,,,0.00,Wunderground v.1.15,2013-06-14 04:04:00,
2013-06-13 21:08:00,64.3,58.7,29.90,WNW,300,3.0,5.0,82,0.00,,,0.00,Wunderground v.1.15,2013-06-14 04:08:00,
2013-06-13 21:10:00,64.2,58.6,29.91,NW,312,3.0,3.0,82,0.00,,,0.00,Wunderground v.1.15,2013-06-14 04:10:00,
2013-06-13 21:14:00,64.1,58.8,29.91,NW,312,3.0,5.0,83,0.00,,,0.00,Wunderground v.1.15,2013-06-14 04:14:00,
2013-06-13 21:18:00,64.0,58.7,29.91,NW,311,3.0,5.0,83,0.00,,,0.00,Wunderground v.1.15,2013-06-14 04:18:00,
2013-06-13 21:20:00,64.0,58.7,29.91,NW,311,3.0,3.0,83,0.00,,,0.00,Wunderground v.1.15,2013-06-14 04:20:00,
2013-06-13 21:22:00,64.0,58.7,29.91,NW,311,2.0,3.0,83,0.00,,,0.00,Wunderground v.1.15,2013-06-14 04:22:00,
2013-06-13 21:24:00,63.9,58.6,29.91,NW,311,2.0,3.0,83,0.00,,,0.00,Wunderground v.1.15,2013-06-14 04:24:00,
2013-06-13 21:28:00,63.9,58.6,29.91,NW,311,1.0,3.0,83,0.00,,,0.00,Wunderground v.1.15,2013-06-14 04:28:00,
2013-06-13 21:30:00,63.8,58.5,29.91,NW,311,0.0,0.0,83,0.00,,,0.00,Wunderground v.1.15,2013-06-14 04:30:00,
2013-06-13 21:32:00,63.8,58.5,29.91,NW,311,0.0,0.0,83,0.00,,,0.00,Wunderground v.1.15,2013-06-14 04:32:00,
2013-06-13 21:36:00,63.7,58.4,29.91,NW,311,0.0,0.0,83,0.00,,,0.00,Wunderground v.1.15,2013-06-14 04:36:00,
2013-06-13 21:38:00,63.7,58.4,29.91,NW,311,0.0,0.0,83,0.00,,,0.00,Wunderground v.1.15,2013-06-14 04:38:00,
2013-06-13 21:42:00,63.5,58.2,29.91,NW,311,0.0,0.0,83,0.00,,,0.00,Wunderground v.1.15,2013-06-14 04:42:00,
2013-06-13 21:44:00,63.5,58.2,29.91,NW,311,0.0,0.0,83,0.00,,,0.00,Wunderground v.1.15,2013-06-14 04:44:00,
2013-06-13 21:46:00,63.5,58.2,29.91,NW,311,0.0,0.0,83,0.00,,,0.00,Wunderground v.1.15,2013-06-14 04:46:00,
2013-06-13 21:48:00,63.4,58.5,29.91,NW,311,0.0,0.0,84,0.00,,,0.00,Wunderground v.1.15,2013-06-14 04:48:00,
2013-06-13 21:50:00,63.4,58.5,29.91,NW,311,0.0,0.0,84,0.00,,,0.00,Wunderground v.1.15,2013-06-14 04:50:00,
2013-06-13 21:52:00,63.3,58.4,29.91,NW,311,0.0,0.0,84,0.00,,,0.00,Wunderground v.1.15,2013-06-14 04:52:00,
2013-06-13 21:54:00,63.3,58.4,29.91,NW,311,0.0,0.0,84,0.00,,,0.00,Wunderground v.1.15,2013-06-14 04:54:00,
2013-06-13 21:56:00,63.2,58.3,29.91,NW,311,0.0,0.0,84,0.00,,,0.00,Wunderground v.1.15,2013-06-14 04:56:00,
2013-06-13 22:00:00,63.1,58.2,29.91,NW,311,0.0,0.0,84,0.00,,,0.00,Wunderground v.1.15,2013-06-14 05:00:00,
2013-06-13 22:02:00,63.1,58.2,29.91,NW,311,0.0,0.0,84,0.00,,,0.00,Wunderground v.1.15,2013-06-14 05:02:00,
2013-06-13 22:06:00,62.9,58.0,29.91,NW,311,0.0,0.0,84,0.00,,,0.00,Wunderground v.1.15,2013-06-14 05:06:00,
2013-06-13 22:08:00,62.9,58.0,29.92,NW,311,0.0,0.0,84,0.00,,,0.00,Wunderground v.1.15,2013-06-14 05:08:00,
2013-06-13 22:10:00,62.8,57.9,29.91,NW,311,0.0,0.0,84,0.00,,,0.00,Wunderground v.1.15,2013-06-14 05:10:00,
2013-06-13 22:12:00,62.7,57.8,29.92,NW,311,0.0,0.0,84,0.00,,,0.00,Wunderground v.1.15,2013-06-14 05:12:00,
2013-06-13 22:18:00,62.5,57.6,29.92,NW,311,0.0,0.0,84,0.00,,,0.00,Wunderground v.1.15,2013-06-14 05:18:00,
2013-06-13 22:20:00,62.5,57.9,29.92,NW,311,0.0,0.0,85,0.00,,,0.00,Wunderground v.1.15,2013-06-14 05:20:00,
2013-06-13 22:22:00,62.4,57.8,29.92,NW,311,0.0,0.0,85,0.00,,,0.00,Wunderground v.1.15,2013-06-14 05:22:00,
2013-06-13 22:26:00,62.3,57.7,29.92,NW,311,0.0,0.0,85,0.00,,,0.00,Wunderground v.1.15,2013-06-14 05:26:00,
2013-06-13 22:28:00,62.2,57.6,29.92,NW,311,0.0,0.0,85,0.00,,,0.00,Wunderground v.1.15,2013-06-14 05:28:00,
2013-06-13 22:32:00,62.1,57.5,29.92,NW,311,0.0,0.0,85,0.00,,,0.00,Wunderground v.1.15,2013-06-14 05:32:00,
2013-06-13 22:34:00,62.0,57.4,29.91,NW,311,0.0,0.0,85,0.00,,,0.00,Wunderground v.1.15,2013-06-14 05:34:00,
2013-06-13 22:38:00,61.8,57.2,29.92,NW,311,0.0,0.0,85,0.00,,,0.00,Wunderground v.1.15,2013-06-14 05:38:00,
2013-06-13 22:40:00,61.8,57.2,29.92,NW,311,0.0,0.0,85,0.00,,,0.00,Wunderground v.1.15,2013-06-14 05:40:00,
2013-06-13 22:42:00,61.8,57.2,29.92,NW,311,0.0,0.0,85,0.00,,,0.00,Wunderground v.1.15,2013-06-14 05:42:00,
2013-06-13 22:44:00,61.7,57.1,29.92,NW,311,0.0,0.0,85,0.00,,,0.00,Wunderground v.1.15,2013-06-14 05:44:00,
2013-06-13 22:46:00,61.7,57.1,29.92,NW,311,0.0,0.0,85,0.00,,,0.00,Wunderground v.1.15,2013-06-14 05:46:00,
2013-06-13 22:48:00,61.6,57.0,29.92,NW,311,0.0,0.0,85,0.00,,,0.00,Wunderground v.1.15,2013-06-14 05:48:00,
2013-06-13 22:52:00,61.6,57.4,29.92,NW,311,0.0,0.0,86,0.00,,,0.00,Wunderground v.1.15,2013-06-14 05:52:00,
2013-06-13 22:56:00,61.7,57.5,29.92,NW,311,0.0,0.0,86,0.00,,,0.00,Wunderground v.1.15,2013-06-14 05:56:00,
2013-06-13 22:58:00,61.7,57.5,29.92,NW,311,0.0,0.0,86,0.00,,,0.00,Wunderground v.1.15,2013-06-14 05:58:00,